sat.trackr.live / text

‹ back to catalog

STARLINK-34666

NORAD 64794 · 2025-150E

PAYLOAD ACTIVE UNKNOWN

§ Identity

Operator
Country
US
Launch date
2025-07-16
Launch site
AFWTR
Launch vehicle
Mass (kg)
RCS (m²)

Purposes: comms

External: N2YO · Heavens-Above · Gunter

§ Orbital elements

Epoch: 2026-09-20T13:43:36.558624Z

Period
96.11 min
Inclination
70.0030°
Eccentricity
0.0003275
Mean motion
14.98337342 rev/d
Perigee alt
569.8 km
Apogee alt
574.3 km
Semi-major
6,950.2 km
B*
2.0584e-4
RAAN
3.2750°
Arg perigee
268.5860°
Mean anomaly
91.4924°
Rev number
6,570

§ Raw data

STARLINK-346661 64794U 25150E   26263.57195091  .00002364  00000+0  20584-3 0  99952 64794  70.0030   3.2750 0003275 268.5860  91.4924 14.98337342 65702

JSON: /api/v1/satellites/64794 · /tle

For live sub-satellite position, see the globe view (requires WebGL).

§ Visibility from observer

Set your observer location to see the next 7 days of passes ≥ 10°. The values pass through the URL so the page stays shareable.

No JS? Fill the form by hand. The geolocation button needs JavaScript.